Location: Boiro
(42.6475°N, 8.8834°W)
Time: 02:35:09
(UTC+01:00)

Explorer 7 - Pass Details

Date: 05 December 2021
Orbit: 483 x 674 km, 50.3° (Epoch: 18 January)

Event Time Altitude Azimuth Distance (km) Brightness Sun altitude
Exits shadow 06:19:12 45° 140° (SE) 800 7.8 -27.0°
Drops below altitude 10° 06:23:11 10° 69° (ENE) 1,841 10.3 -26.3°
Sets 06:25:25 0° 63° (ENE) 2,705 11.2 -25.9°
